Time,TemperatureF,DewpointF,PressureIn,WindDirection,WindDirectionDegrees,WindSpeedMPH,WindSpeedGustMPH,Humidity,HourlyPrecipIn,Conditions,Clouds,dailyrainin,SolarRadiationWatts/m^2,SoftwareType,DateUTC
2013-05-22 00:08:00,69.6,68.0,30.01,SSE,158,0.0,4.0,95,0.00,,,0.00,0,weatherlink.com 1.10,2013-05-22 04:08:00,
2013-05-22 00:23:00,69.6,68.0,30.02,SSE,163,0.0,4.0,95,0.00,,,0.00,0,weatherlink.com 1.10,2013-05-22 04:23:00,
2013-05-22 00:39:00,69.7,69.0,30.02,South,175,0.0,4.0,96,0.00,,,0.00,0,weatherlink.com 1.10,2013-05-22 04:39:00,
2013-05-22 00:54:00,69.9,69.0,30.02,SW,218,0.0,6.0,95,0.00,,,0.00,0,weatherlink.com 1.10,2013-05-22 04:54:00,
2013-05-22 01:09:00,70.1,69.0,30.02,South,170,1.0,5.0,95,0.00,,,0.00,0,weatherlink.com 1.10,2013-05-22 05:09:00,
2013-05-22 01:24:00,70.1,69.0,30.02,South,174,0.0,4.0,95,0.00,,,0.00,0,weatherlink.com 1.10,2013-05-22 05:24:00,
2013-05-22 01:39:00,70.1,68.0,30.01,South,186,0.0,9.0,94,0.00,,,0.00,0,weatherlink.com 1.10,2013-05-22 05:39:00,
2013-05-22 01:54:00,69.8,68.0,30.01,WSW,238,0.0,8.0,94,0.00,,,0.00,0,weatherlink.com 1.10,2013-05-22 05:54:00,
2013-05-22 02:09:00,69.9,68.0,30.01,South,173,0.0,5.0,94,0.00,,,0.00,0,weatherlink.com 1.10,2013-05-22 06:09:00,
2013-05-22 02:24:00,69.9,68.0,30.01,West,263,0.0,3.0,94,0.00,,,0.00,0,weatherlink.com 1.10,2013-05-22 06:24:00,
2013-05-22 02:39:00,70.0,68.0,30.01,SW,229,2.0,7.0,94,0.00,,,0.00,0,weatherlink.com 1.10,2013-05-22 06:39:00,
2013-05-22 02:54:00,69.9,68.0,30.01,SW,225,2.0,5.0,93,0.00,,,0.00,0,weatherlink.com 1.10,2013-05-22 06:54:00,
2013-05-22 03:09:00,69.9,68.0,30.00,SSE,168,0.0,3.0,94,0.00,,,0.00,0,weatherlink.com 1.10,2013-05-22 07:09:00,
2013-05-22 03:24:00,69.8,68.0,30.00,SSE,165,1.0,5.0,94,0.00,,,0.00,0,weatherlink.com 1.10,2013-05-22 07:24:00,
2013-05-22 03:39:00,69.7,68.0,29.99,SSE,164,5.0,6.0,94,0.00,,,0.00,0,weatherlink.com 1.10,2013-05-22 07:39:00,
2013-05-22 03:54:00,69.6,68.0,29.99,South,178,0.0,6.0,94,0.00,,,0.00,0,weatherlink.com 1.10,2013-05-22 07:54:00,
2013-05-22 04:09:00,69.4,68.0,29.99,SSE,162,0.0,5.0,94,0.00,,,0.00,0,weatherlink.com 1.10,2013-05-22 08:09:00,
2013-05-22 04:24:00,69.3,67.0,29.99,WSW,252,4.0,5.0,93,0.00,,,0.00,0,weatherlink.com 1.10,2013-05-22 08:24:00,
2013-05-22 04:39:00,68.9,67.0,29.98,South,174,0.0,5.0,93,0.00,,,0.00,0,weatherlink.com 1.10,2013-05-22 08:39:00,
2013-05-22 04:54:00,68.7,67.0,29.98,South,182,3.0,6.0,93,0.00,,,0.00,0,weatherlink.com 1.10,2013-05-22 08:54:00,
2013-05-22 05:09:00,68.6,67.0,29.98,SSE,154,0.0,8.0,93,0.00,,,0.00,0,weatherlink.com 1.10,2013-05-22 09:09:00,
2013-05-22 05:24:00,68.5,67.0,29.98,SSE,168,2.0,4.0,93,0.00,,,0.00,0,weatherlink.com 1.10,2013-05-22 09:24:00,
2013-05-22 05:39:00,68.4,66.0,29.98,South,172,1.0,3.0,93,0.00,,,0.00,0,weatherlink.com 1.10,2013-05-22 09:39:00,
2013-05-22 05:54:00,68.3,66.0,29.99,South,171,2.0,6.0,93,0.00,,,0.00,0,weatherlink.com 1.10,2013-05-22 09:54:00,
2013-05-22 06:09:00,68.1,66.0,30.00,SSE,165,0.0,4.0,94,0.00,,,0.00,0,weatherlink.com 1.10,2013-05-22 10:09:00,
2013-05-22 06:24:00,68.0,66.0,30.01,SW,233,4.0,7.0,94,0.00,,,0.00,0,weatherlink.com 1.10,2013-05-22 10:24:00,
2013-05-22 06:39:00,68.1,66.0,30.00,South,169,0.0,5.0,94,0.00,,,0.00,28,weatherlink.com 1.10,2013-05-22 10:39:00,
2013-05-22 06:54:00,68.1,66.0,30.00,South,183,0.0,6.0,94,0.00,,,0.00,49,weatherlink.com 1.10,2013-05-22 10:54:00,
2013-05-22 07:09:00,68.7,66.0,30.01,SSE,163,2.0,5.0,92,0.00,,,0.00,97,weatherlink.com 1.10,2013-05-22 11:09:00,
2013-05-22 07:24:00,69.2,67.0,30.02,WSW,245,5.0,8.0,92,0.00,,,0.00,144,weatherlink.com 1.10,2013-05-22 11:24:00,
2013-05-22 07:39:00,69.9,67.0,30.02,South,184,0.0,4.0,91,0.00,,,0.00,193,weatherlink.com 1.10,2013-05-22 11:39:00,
2013-05-22 07:54:00,70.5,68.0,30.02,SSW,204,1.0,4.0,90,0.00,,,0.00,260,weatherlink.com 1.10,2013-05-22 11:54:00,
2013-05-22 08:09:00,70.8,68.0,30.02,SW,236,1.0,5.0,89,0.00,,,0.00,332,weatherlink.com 1.10,2013-05-22 12:09:00,
2013-05-22 08:24:00,70.8,68.0,30.03,SW,236,0.0,5.0,89,0.00,,,0.00,158,weatherlink.com 1.10,2013-05-22 12:24:00,
2013-05-22 08:39:00,70.8,68.0,30.03,SW,218,1.0,9.0,89,0.00,,,0.00,262,weatherlink.com 1.10,2013-05-22 12:39:00,
2013-05-22 08:55:00,71.9,68.0,30.03,SW,229,0.0,10.0,86,0.00,,,0.00,262,weatherlink.com 1.10,2013-05-22 12:55:00,
2013-05-22 09:10:00,72.6,68.0,30.02,SW,230,2.0,7.0,86,0.00,,,0.00,550,weatherlink.com 1.10,2013-05-22 13:10:00,
2013-05-22 09:25:00,72.5,67.0,30.03,WSW,246,5.0,8.0,84,0.00,,,0.00,206,weatherlink.com 1.10,2013-05-22 13:25:00,
2013-05-22 09:40:00,72.1,67.0,30.03,WSW,248,0.0,6.0,84,0.00,,,0.00,162,weatherlink.com 1.10,2013-05-22 13:40:00,
2013-05-22 09:55:00,72.7,67.0,30.03,SW,225,3.0,7.0,83,0.00,,,0.00,244,weatherlink.com 1.10,2013-05-22 13:55:00,
2013-05-22 10:10:00,73.6,68.0,30.03,WSW,243,6.0,9.0,83,0.00,,,0.00,352,weatherlink.com 1.10,2013-05-22 14:10:00,
2013-05-22 10:25:00,74.4,68.0,30.04,SSW,208,0.0,7.0,81,0.00,,,0.00,287,weatherlink.com 1.10,2013-05-22 14:25:00,
2013-05-22 10:40:00,74.4,68.0,30.04,WSW,247,1.0,7.0,80,0.00,,,0.00,221,weatherlink.com 1.10,2013-05-22 14:40:00,
2013-05-22 10:55:00,74.4,68.0,30.04,SW,221,0.0,8.0,81,0.00,,,0.00,345,weatherlink.com 1.10,2013-05-22 14:55:00,
2013-05-22 11:10:00,76.2,70.0,30.04,South,177,1.0,6.0,81,0.00,,,0.00,740,weatherlink.com 1.10,2013-05-22 15:10:00,
2013-05-22 11:25:00,76.7,69.0,30.04,WNW,286,3.0,8.0,77,0.00,,,0.00,216,weatherlink.com 1.10,2013-05-22 15:25:00,
2013-05-22 11:40:00,75.5,70.0,30.04,West,267,0.0,0.0,82,0.00,,,0.00,146,weatherlink.com 1.10,2013-05-22 15:40:00,
2013-05-22 11:55:00,74.9,70.0,30.04,West,267,0.0,0.0,85,0.00,,,0.00,244,weatherlink.com 1.10,2013-05-22 15:55:00,
2013-05-22 12:10:00,76.8,70.0,30.03,ESE,102,0.0,2.0,79,0.00,,,0.00,257,weatherlink.com 1.10,2013-05-22 16:10:00,
2013-05-22 12:25:00,77.6,70.0,30.02,SW,223,3.0,5.0,76,0.00,,,0.00,230,weatherlink.com 1.10,2013-05-22 16:25:00,
2013-05-22 12:40:00,78.8,69.0,30.02,South,173,5.0,10.0,73,0.00,,,0.00,1027,weatherlink.com 1.10,2013-05-22 16:40:00,
2013-05-22 12:55:00,79.6,69.0,30.01,SW,232,0.0,7.0,69,0.00,,,0.00,970,weatherlink.com 1.10,2013-05-22 16:55:00,
2013-05-22 13:10:00,80.0,68.0,30.00,South,169,5.0,7.0,67,0.00,,,0.00,373,weatherlink.com 1.10,2013-05-22 17:10:00,
2013-05-22 13:25:00,81.3,70.0,30.00,ESE,115,1.0,9.0,68,0.00,,,0.00,1160,weatherlink.com 1.10,2013-05-22 17:25:00,
2013-05-22 13:40:00,81.4,68.0,29.99,South,177,7.0,10.0,64,0.00,,,0.00,1023,weatherlink.com 1.10,2013-05-22 17:40:00,
2013-05-22 13:55:00,81.6,68.0,29.98,SW,225,5.0,11.0,63,0.00,,,0.00,1011,weatherlink.com 1.10,2013-05-22 17:55:00,
2013-05-22 14:10:00,81.8,69.0,29.98,WSW,247,2.0,10.0,66,0.00,,,0.00,926,weatherlink.com 1.10,2013-05-22 18:10:00,
2013-05-22 14:25:00,82.5,68.0,29.97,SSE,163,5.0,14.0,62,0.00,,,0.00,954,weatherlink.com 1.10,2013-05-22 18:25:00,
2013-05-22 14:40:00,82.7,70.0,29.97,WSW,257,2.0,7.0,66,0.00,,,0.00,991,weatherlink.com 1.10,2013-05-22 18:40:00,
2013-05-22 14:55:00,82.9,69.0,29.96,ESE,102,1.0,9.0,63,0.00,,,0.00,962,weatherlink.com 1.10,2013-05-22 18:55:00,
2013-05-22 15:10:00,83.2,69.0,29.96,South,182,4.0,9.0,63,0.00,,,0.00,884,weatherlink.com 1.10,2013-05-22 19:10:00,
2013-05-22 15:26:00,83.6,70.0,29.96,WNW,300,1.0,8.0,64,0.00,,,0.00,865,weatherlink.com 1.10,2013-05-22 19:26:00,
2013-05-22 15:41:00,83.2,69.0,29.95,SSW,211,3.0,11.0,63,0.00,,,0.00,893,weatherlink.com 1.10,2013-05-22 19:41:00,
2013-05-22 15:56:00,83.7,70.0,29.95,WSW,250,4.0,8.0,63,0.00,,,0.00,802,weatherlink.com 1.10,2013-05-22 19:56:00,
2013-05-22 16:11:00,81.8,69.0,29.95,SW,232,1.0,11.0,65,0.00,,,0.00,232,weatherlink.com 1.10,2013-05-22 20:11:00,
2013-05-22 16:26:00,83.3,70.0,29.94,SSE,155,6.0,7.0,65,0.00,,,0.00,761,weatherlink.com 1.10,2013-05-22 20:26:00,
2013-05-22 16:41:00,84.3,68.0,29.93,SSE,163,2.0,10.0,58,0.00,,,0.00,671,weatherlink.com 1.10,2013-05-22 20:41:00,
2013-05-22 16:56:00,83.9,67.0,29.92,SSW,197,2.0,9.0,58,0.00,,,0.00,605,weatherlink.com 1.10,2013-05-22 20:56:00,
2013-05-22 17:11:00,84.0,68.0,29.92,SSE,150,3.0,9.0,58,0.00,,,0.00,599,weatherlink.com 1.10,2013-05-22 21:11:00,
2013-05-22 17:26:00,83.0,68.0,29.91,South,178,0.0,11.0,61,0.00,,,0.00,97,weatherlink.com 1.10,2013-05-22 21:26:00,
2013-05-22 17:41:00,81.8,67.0,29.92,SSE,163,2.0,6.0,62,0.00,,,0.00,109,weatherlink.com 1.10,2013-05-22 21:41:00,
2013-05-22 17:56:00,79.2,69.0,29.93,West,263,1.0,11.0,71,0.00,,,0.00,76,weatherlink.com 1.10,2013-05-22 21:56:00,
2013-05-22 18:11:00,78.7,69.0,29.93,SW,229,4.0,8.0,71,0.00,,,0.00,90,weatherlink.com 1.10,2013-05-22 22:11:00,
2013-05-22 18:26:00,78.5,68.0,29.93,WSW,246,1.0,6.0,71,0.00,,,0.00,69,weatherlink.com 1.10,2013-05-22 22:26:00,
2013-05-22 18:41:00,78.2,68.0,29.92,South,181,0.0,5.0,70,0.00,,,0.00,88,weatherlink.com 1.10,2013-05-22 22:41:00,
2013-05-22 18:56:00,78.2,68.0,29.93,South,173,0.0,3.0,71,0.00,,,0.00,40,weatherlink.com 1.10,2013-05-22 22:56:00,
2013-05-22 19:11:00,77.6,69.0,29.92,SSE,148,0.0,2.0,75,0.00,,,0.00,33,weatherlink.com 1.10,2013-05-22 23:11:00,
2013-05-22 19:26:00,77.1,68.0,29.92,South,175,0.0,5.0,74,0.00,,,0.00,32,weatherlink.com 1.10,2013-05-22 23:26:00,
2013-05-22 19:41:00,77.2,69.0,29.92,SSE,165,0.0,3.0,75,0.00,,,0.00,21,weatherlink.com 1.10,2013-05-22 23:41:00,
2013-05-22 19:56:00,77.2,68.0,29.93,South,187,4.0,10.0,73,0.00,,,0.00,14,weatherlink.com 1.10,2013-05-22 23:56:00,
2013-05-22 20:11:00,76.5,67.0,29.94,SSW,212,0.0,8.0,72,0.00,,,0.00,0,weatherlink.com 1.10,2013-05-23 00:11:00,
2013-05-22 20:26:00,75.4,67.0,29.95,South,182,0.0,7.0,74,0.00,,,0.00,0,weatherlink.com 1.10,2013-05-23 00:26:00,
2013-05-22 20:41:00,74.5,67.0,29.95,SE,141,1.0,3.0,76,0.00,,,0.00,0,weatherlink.com 1.10,2013-05-23 00:41:00,
2013-05-22 20:56:00,73.8,66.0,29.96,ESE,118,0.0,5.0,77,0.00,,,0.00,0,weatherlink.com 1.10,2013-05-23 00:56:00,
2013-05-22 21:11:00,73.2,66.0,29.96,East,98,0.0,2.0,78,0.00,,,0.00,0,weatherlink.com 1.10,2013-05-23 01:11:00,
2013-05-22 21:26:00,72.5,66.0,29.96,South,176,0.0,3.0,81,0.00,,,0.00,0,weatherlink.com 1.10,2013-05-23 01:26:00,
2013-05-22 21:41:00,72.0,66.0,29.97,SSW,193,0.0,1.0,82,0.00,,,0.00,0,weatherlink.com 1.10,2013-05-23 01:41:00,
2013-05-22 21:56:00,71.6,67.0,29.97,SE,131,0.0,2.0,84,0.00,,,0.00,0,weatherlink.com 1.10,2013-05-23 01:56:00,
2013-05-22 22:11:00,71.7,67.0,29.98,South,187,0.0,4.0,84,0.00,,,0.00,0,weatherlink.com 1.10,2013-05-23 02:11:00,
2013-05-22 22:26:00,70.9,67.0,29.98,SE,136,0.0,1.0,86,0.00,,,0.00,0,weatherlink.com 1.10,2013-05-23 02:26:00,
2013-05-22 22:41:00,70.8,67.0,29.98,ESE,107,0.0,1.0,88,0.00,,,0.00,0,weatherlink.com 1.10,2013-05-23 02:41:00,
2013-05-22 22:56:00,71.1,67.0,29.98,South,179,1.0,6.0,88,0.00,,,0.00,0,weatherlink.com 1.10,2013-05-23 02:56:00,
2013-05-22 23:11:00,71.6,68.0,29.97,ESE,103,2.0,7.0,87,0.00,,,0.00,0,weatherlink.com 1.10,2013-05-23 03:11:00,
2013-05-22 23:27:00,71.7,68.0,29.97,SSW,194,0.0,7.0,87,0.00,,,0.00,0,weatherlink.com 1.10,2013-05-23 03:27:00,
2013-05-22 23:41:00,71.5,68.0,29.96,South,178,3.0,6.0,87,0.00,,,0.00,0,weatherlink.com 1.10,2013-05-23 03:41:00,
2013-05-22 23:56:00,71.4,68.0,29.97,SW,224,0.0,5.0,88,0.00,,,0.00,0,weatherlink.com 1.10,2013-05-23 03:56:00,